GW4027 Weather Reports


Display with metric or nautical units.
time (UTC)temp
F
wind
direction
speed
MPH
gust
MPH
rain 1hr
in
rain 24hr
in
rain mn
in
humidity
%
barometer
mb
20260506020902 44 51 1.0 2.0 0.00 0.00 0.00 85 1011.7
20260506020002 44 47 1.0 2.0 0.00 0.00 0.00 86 1011.6
20260506015402 44 51 1.0 3.0 0.00 0.00 0.00 86 1011.8
20260506014502 44 27 1.0 2.0 0.00 0.00 0.00 86 1011.8
20260506013602 44 35 1.0 3.0 0.00 0.00 0.00 86 1011.9
20260506012723 43 22 1.0 2.0 0.00 0.00 0.00 87 1012.0
20260506011802 43 8 1.0 3.0 0.00 0.00 0.00 87 1012.0
20260506010902 43 27 0.0 1.0 0.00 0.00 0.00 87 1012.0
20260506010002 43 172 0.0 2.0 0.00 0.00 0.00 87 1011.8
20260506005402 43 156 0.0 1.0 0.00 0.00 0.00 87 1011.8
20260506004502 43 199 0.0 1.0 0.00 0.00 0.00 88 1012.0
20260506003602 43 208 0.0 1.0 0.00 0.00 0.00 88 1012.2
20260506002702 43 204 0.0 1.0 0.00 0.00 0.00 88 1012.0
20260506001802 43 200 0.0 1.0 0.00 0.00 0.00 88 1012.2
20260506000923 43 190 0.0 1.0 0.00 0.00 0.00 88 1012.1
20260506000002 43 196 0.0 1.0 0.00 0.00 0.00 88 1012.2
20260505235402 43 194 0.0 1.0 0.00 0.00 0.00 88 1012.2
20260505234502 43 191 0.0 1.0 0.00 0.00 0.00 88 1012.4
20260505233623 43 195 0.0 2.0 0.00 0.00 0.00 87 1012.2
20260505232702 43 200 0.0 1.0 0.00 0.00 0.00 88 1012.3
20260505231802 43 189 0.0 1.0 0.00 0.00 0.00 88 1012.4
20260505230902 43 192 0.0 1.0 0.00 0.00 0.00 87 1012.4
20260505230002 43 206 0.0 2.0 0.00 0.00 0.00 86 1012.5
20260505225402 44 205 1.0 2.0 0.00 0.00 0.00 86 1012.5
20260505224523 44 196 0.0 2.0 0.00 0.00 0.00 87 1012.6
20260505223602 44 196 1.0 3.0 0.00 0.00 0.00 86 1012.6
20260505222702 44 192 1.0 2.0 0.00 0.00 0.00 86 1012.5
20260505221802 44 199 1.0 3.0 0.00 0.00 0.00 85 1012.6
20260505220902 43 195 0.0 1.0 0.00 0.00 0.00 85 1012.4
20260505220002 43 199 0.0 1.0 0.00 0.00 0.00 84 1012.7
20260505215402 43 205 0.0 1.0 0.00 0.00 0.00 85 1012.7
20260505214502 44 203 0.0 1.0 0.00 0.00 0.00 84 1012.5
20260505213602 44 200 0.0 1.0 0.00 0.00 0.00 84 1012.6
20260505212723 43 194 0.0 1.0 0.00 0.00 0.00 84 1012.6
20260505211802 43 178 0.0 1.0 0.00 0.00 0.00 84 1012.5
20260505210923 44 185 0.0 1.0 0.00 0.00 0.00 83 1012.4
20260505210002 44 201 0.0 2.0 0.00 0.00 0.00 83 1012.4
20260505205402 43 199 0.0 2.0 0.00 0.00 0.00 84 1012.6
20260505204502 44 201 0.0 1.0 0.00 0.00 0.00 84 1012.5
20260505203602 44 0 0.0 0.0 0.00 0.00 0.00 84 1012.4
20260505202702 44 166 0.0 2.0 0.00 0.00 0.00 83 1012.4
20260505201802 45 145 0.0 1.0 0.00 0.00 0.00 82 1012.6
20260505200902 45 198 0.0 1.0 0.00 0.00 0.00 81 1012.5
20260505200002 45 185 0.0 1.0 0.00 0.00 0.00 80 1012.3
20260505195402 46 204 0.0 1.0 0.00 0.00 0.00 80 1012.3
20260505194502 46 189 0.0 1.0 0.00 0.00 0.00 79 1012.4
20260505193602 47 200 0.0 1.0 0.00 0.00 0.00 79 1012.0
20260505192702 47 205 0.0 1.0 0.00 0.00 0.00 79 1012.2
20260505191802 48 0 0.0 0.0 0.00 0.00 0.00 78 1012.4
20260505190923 48 0 0.0 0.0 0.00 0.00 0.00 76 1012.0
20260505190023 49 213 0.0 1.0 0.00 0.00 0.00 75 1012.1
20260505185423 49 213 0.0 1.0 0.00 0.00 0.00 74 1012.0
20260505184523 49 189 0.0 1.0 0.00 0.00 0.00 71 1012.2
20260505183602 49 167 0.0 1.0 0.00 0.00 0.00 71 1012.0
20260505182702 50 357 0.0 1.0 0.00 0.00 0.00 71 1012.1
20260505181823 50 292 0.0 1.0 0.00 0.00 0.00 69 1012.2
20260505180902 50 10 0.0 2.0 0.00 0.00 0.00 70 1012.2
20260505180002 50 201 0.0 1.0 0.00 0.00 0.00 69 1011.9
20260505175402 50 232 0.0 1.0 0.00 0.00 0.00 67 1012.3
20260505174523 51 240 0.0 1.0 0.00 0.00 0.00 67 1012.1
20260505173623 51 280 0.0 2.0 0.00 0.00 0.00 67 1012.1
20260505172702 51 199 0.0 1.0 0.00 0.00 0.00 68 1012.2
20260505171802 51 352 0.0 1.0 0.00 0.00 0.00 65 1012.2
20260505170902 51 0 0.0 0.0 0.00 0.00 0.00 64 1012.3
20260505170002 51 1 0.0 2.0 0.00 0.00 0.00 65 1012.3
20260505165402 51 1 0.0 2.0 0.00 0.00 0.00 65 1012.4
20260505164502 51 360 1.0 2.0 0.00 0.00 0.00 64 1012.2
20260505163602 52 359 1.0 6.0 0.00 0.00 0.00 66 1012.4
20260505162702 51 142 0.0 2.0 0.00 0.00 0.00 66 1012.5
20260505161823 51 326 1.0 3.0 0.00 0.00 0.00 67 1012.6
20260505160923 51 178 1.0 3.0 0.00 0.00 0.00 71 1012.5
20260505152702 50 9 2.0 4.0 0.00 0.00 0.00 77 1012.7
20260505151802 50 13 2.0 6.0 0.00 0.00 0.00 78 1012.5
20260505150902 50 19 1.0 6.0 0.00 0.00 0.00 78 1012.8
20260505124502 51 31 2.0 6.0 0.00 0.00 0.00 79 1012.7
20260505123602 51 10 2.0 4.0 0.00 0.00 0.00 80 1012.8
20260505122723 50 34 2.0 6.0 0.00 0.00 0.00 81 1012.7
20260505121802 50 9 2.0 7.0 0.00 0.00 0.00 80 1012.6
20260505120903 51 9 2.0 6.0 0.00 0.00 0.00 81 1012.5
20260505120003 50 12 1.0 4.0 0.00 0.00 0.00 82 1012.6
20260505115402 51 343 1.0 3.0 0.00 0.00 0.00 83 1012.7
20260505114524 50 11 2.0 6.0 0.00 0.00 0.00 84 1012.8
20260505113602 50 360 2.0 7.0 0.00 0.00 0.00 84 1012.9
20260505112703 50 6 2.0 6.0 0.00 0.00 0.00 85 1013.1
20260505111803 50 11 3.0 6.0 0.00 0.00 0.00 83 1012.8
20260505110903 50 6 2.0 6.0 0.00 0.00 0.00 82 1012.8
20260505101824 52 29 2.0 4.0 0.00 0.00 0.00 74 1012.7
20260505100902 51 23 2.0 9.0 0.00 0.00 0.00 77 1012.9
20260505100024 51 17 1.0 2.0 0.00 0.00 0.00 81 1013.0
20260505095403 50 33 1.0 2.0 0.00 0.00 0.00 81 1013.0
20260505094503 50 31 1.0 3.0 0.00 0.00 0.00 81 1012.9
20260505093602 50 22 2.0 4.0 0.00 0.00 0.00 81 1013.0
20260505092702 50 6 1.0 3.0 0.00 0.00 0.00 81 1012.9
20260505091803 50 29 1.0 3.0 0.00 0.00 0.00 81 1013.1
20260505090902 50 12 1.0 3.0 0.00 0.00 0.00 81 1013.1
20260505090002 50 10 2.0 6.0 0.00 0.00 0.00 81 1012.9
20260505085402 50 16 2.0 4.0 0.00 0.00 0.00 81 1013.0
20260505084502 50 16 2.0 6.0 0.00 0.00 0.00 81 1013.0
20260505083623 50 349 2.0 6.0 0.00 0.00 0.00 81 1013.0
20260505082723 50 8 2.0 4.0 0.00 0.00 0.00 81 1013.0
20260505081802 50 17 2.0 4.0 0.00 0.00 0.00 81 1013.1
20260505080903 50 24 2.0 4.0 0.00 0.00 0.00 81 1013.0
20260505080002 49 21 2.0 6.0 0.00 0.00 0.00 81 1012.8
20260505075402 49 26 2.0 4.0 0.00 0.00 0.00 81 1012.8
20260505074502 49 17 2.0 4.0 0.00 0.00 0.00 80 1012.9
20260505073603 50 5 2.0 4.0 0.00 0.00 0.00 80 1012.9
20260505072703 49 1 2.0 4.0 0.00 0.00 0.00 79 1012.7
20260505071802 50 356 2.0 4.0 0.00 0.00 0.00 80 1012.9
20260505070903 49 6 2.0 4.0 0.00 0.00 0.00 80 1012.7
20260505070002 49 22 2.0 4.0 0.00 0.00 0.00 81 1012.7
20260505065403 49 28 2.0 4.0 0.00 0.00 0.00 81 1012.8
20260505064503 49 13 2.0 7.0 0.00 0.00 0.00 82 1012.9
20260505063603 49 12 1.0 3.0 0.00 0.00 0.00 82 1012.9
20260505062702 48 17 1.0 4.0 0.00 0.00 0.00 83 1012.8
20260505061802 48 6 2.0 6.0 0.00 0.00 0.00 84 1012.9
20260505060902 48 49 2.0 4.0 0.00 0.00 0.00 84 1012.8
20260505060003 48 3 1.0 4.0 0.00 0.00 0.00 85 1012.6
20260505055402 48 32 1.0 4.0 0.00 0.00 0.00 86 1012.7
20260505054502 48 42 1.0 4.0 0.00 0.00 0.00 86 1012.6
20260505053624 48 6 2.0 7.0 0.00 0.00 0.00 86 1012.7
20260505052724 48 32 2.0 4.0 0.00 0.00 0.00 87 1012.7
20260505051803 48 31 2.0 6.0 0.00 0.00 0.00 86 1012.5
20260505050903 48 10 1.0 4.0 0.00 0.00 0.00 86 1012.5
20260505040903 48 6 2.0 6.0 0.00 0.00 0.00 86 1012.4
20260505040003 48 22 2.0 6.0 0.00 0.00 0.00 87 1012.5
20260505035403 48 16 2.0 6.0 0.00 0.00 0.00 87 1012.6
20260505034503 48 6 2.0 4.0 0.00 0.00 0.00 87 1012.5
20260505033603 48 3 2.0 7.0 0.00 0.00 0.00 86 1012.5
20260505032702 48 13 2.0 7.0 0.00 0.00 0.00 86 1012.5
20260505031803 48 31 1.0 6.0 0.00 0.00 0.00 86 1012.4
20260505030924 48 21 1.0 4.0 0.00 0.00 0.00 86 1012.7
20260505030003 48 26 1.0 4.0 0.00 0.00 0.00 86 1012.4
20260505025424 48 21 1.0 3.0 0.00 0.00 0.00 86 1012.6
20260505024503 48 29 0.0 2.0 0.00 0.00 0.00 87 1012.6
20260505023603 47 2 0.0 2.0 0.00 0.00 0.00 86 1012.5
20260505022703 47 16 0.0 2.0 0.00 0.00 0.00 86 1012.7
20260505021803 48 25 0.0 2.0 0.00 0.00 0.00 85 1012.6